weather.gov     
National Weather Service

Terminal Aerodrome Forecast
NWS Homepage
This page is being discontinued on March 12, 2014.
The same data is available at this site. Please update your bookmarks.
Thank you, and we apologize for the inconvenience.
Please send an email to SR-SRH.Webmaster@noaa.gov with any concerns.


Current Version
Previous Version:    01  02  03  04  05  06  07  08  09  10  11  12  13  14  15  16  17  18  19  20  21  22  23  24  25  26  27  28  29  30  
   31  32  33  
[Printable]
394
FTUS43 KIND 241100
TAFLAF
TAF
KLAF 241120Z 2412/2512 11011KT P6SM SCT120 BKN200
     FM241600 15015G23KT P6SM BKN150
     FM250200 12013KT P6SM OVC100
     FM250500 13012KT 4SM -SHRA BR SCT020 OVC040
     FM250900 25014G22KT 3SM -SHRA BR OVC012
      AMD LTD TO CLD VIS AND WIND TIL 241300=


U.S. Dept. of Commerce
NOAA National Weather Service
1325 East West Highway
Silver Spring, MD 20910
E-mail: w-nws.webmaster@noaa.gov
Page last modified: May 16, 2007
NATIONAL WEATHER SERVICE: for Safety, for Work, for Fun - FOR LIFE